Wrangell, AK

6:09 PM AKST on February 23, 2018 (GMT -0900)
Wrangell

Weather History for PAWG - October, 2012

Change the Weather History Date:

Thursday, October 25, 2012

  Actual Average Record
Temperature  
Mean Temperature 36 °F -  
Max Temperature 42 °F 48 °F 63 °F (1974)
Min Temperature 30 °F 37 °F 24 °F (1969)
Degree Days  
Heating Degree Days 29    
Moisture  
Dew Point 18 °F    
Average Humidity 49    
Maximum Humidity 75    
Minimum Humidity 34    
Precipitation  
Precipitation 0.00 in - - ()
Sea Level Pressure  
Sea Level Pressure 30.36 in    
Wind  
Wind Speed 6 mph (East)    
Max Wind Speed 14 mph    
Max Gust Speed 18 mph    
Visibility 10 miles    
Events      
Averages and records for this station are not official NWS values.
T = Trace of Precipitation, MM = Missing Value Source: NWS Daily Summary

Daily Weather History Graph

Daily Weather History Graph

Search for Another Location

Airport or City:

Trip Planner

Search our weather history database for the weather conditions in past years. The results will help you decide how hot, cold, wet, or windy it might be!

Date:

Astronomy

Oct. 25, 2012 Rise Set
Actual Time 7:44 AM AKDT 5:21 PM AKDT
Civil Twilight 7:05 AM AKDT 6:00 PM AKDT
Nautical Twilight 6:20 AM AKDT 6:44 PM AKDT
Astronomical Twilight 5:37 AM AKDT 7:28 PM AKDT
Moon 3:44 PM AKDT (10/25) 3:09 AM AKDT (10/25)
Length of Visible Light 10h 55m
Length of Day
9h 37m
Waxing Gibbous, 85% of the Moon is Illuminated
Oct 25
Waxing Gibbous
Oct 29
Full
Nov 6
Last Quarter
Nov 13
New
Nov 20
First Quarter

Hourly Weather History & Observations

Time (AKDT) Temp. Windchill Dew Point Humidity Pressure Visibility Wind Dir Wind Speed Gust Speed Precip Events Conditions
12:16 AM 35.6 °F - 17.6 °F 48% 30.34 in 10.0 mi Calm Calm - N/A   Overcast
12:36 AM 35.6 °F 31.7 °F 17.6 °F 48% 30.34 in 10.0 mi East 4.6 mph - N/A   Overcast
12:56 AM 33.8 °F - 17.6 °F 52% 30.34 in 10.0 mi Calm Calm - N/A   Overcast
1:16 AM 33.8 °F 28.6 °F 19.4 °F 56% 30.34 in 10.0 mi SSE 5.8 mph - N/A   Overcast
1:36 AM 32.0 °F - 17.6 °F 55% 30.35 in 10.0 mi Calm Calm - N/A   Scattered Clouds
1:56 AM 33.8 °F - 17.6 °F 52% 30.35 in 10.0 mi Calm Calm - N/A   Clear
2:16 AM 32.0 °F - 19.4 °F 60% 30.36 in 10.0 mi Calm Calm - N/A   Scattered Clouds
2:36 AM 33.8 °F 27.7 °F 21.2 °F 60% 30.36 in 10.0 mi North 6.9 mph - N/A   Partly Cloudy
2:56 AM 35.6 °F 30.7 °F 21.2 °F 56% 30.36 in 10.0 mi NE 5.8 mph - N/A   Clear
3:16 AM 33.8 °F 29.6 °F 21.2 °F 60% 30.37 in 10.0 mi NNE 4.6 mph - N/A   Clear
3:36 AM 33.8 °F 29.6 °F 21.2 °F 60% 30.37 in 10.0 mi NE 4.6 mph - N/A   Clear
3:56 AM 33.8 °F 30.8 °F 21.2 °F 60% 30.37 in 10.0 mi ENE 3.5 mph - N/A   Clear
4:16 AM 32.0 °F 28.7 °F 19.4 °F 60% 30.37 in 10.0 mi SE 3.5 mph - N/A   Clear
4:36 AM 30.2 °F 26.7 °F 19.4 °F 64% 30.38 in 10.0 mi ESE 3.5 mph - N/A   Partly Cloudy
4:56 AM 30.2 °F 24.3 °F 19.4 °F 64% 30.37 in 10.0 mi SE 5.8 mph - N/A   Partly Cloudy
5:16 AM 30.2 °F 25.4 °F 21.2 °F 69% 30.37 in 10.0 mi SSE 4.6 mph - N/A   Clear
5:36 AM 30.2 °F 26.7 °F 21.2 °F 69% 30.37 in 10.0 mi ESE 3.5 mph - N/A   Clear
5:56 AM 32.0 °F 26.4 °F 24.8 °F 75% 30.37 in 10.0 mi East 5.8 mph - N/A   Clear
6:16 AM 32.0 °F 27.5 °F 23.0 °F 69% 30.37 in 10.0 mi SE 4.6 mph - N/A   Clear
6:36 AM 30.2 °F 24.3 °F 21.2 °F 69% 30.37 in 10.0 mi SE 5.8 mph - N/A   Clear
6:56 AM 30.2 °F 23.4 °F 21.2 °F 69% 30.37 in 10.0 mi SE 6.9 mph - N/A   Clear
7:16 AM 30.2 °F 23.4 °F 23.0 °F 75% 30.37 in 10.0 mi SE 6.9 mph - N/A   Clear
7:36 AM 30.2 °F 25.4 °F 21.2 °F 69% 30.37 in 10.0 mi SE 4.6 mph - N/A   Clear
7:56 AM 30.2 °F 24.3 °F 21.2 °F 69% 30.37 in 10.0 mi SE 5.8 mph - N/A   Partly Cloudy
8:16 AM 30.2 °F 24.3 °F 21.2 °F 69% 30.37 in 10.0 mi SE 5.8 mph - N/A   Partly Cloudy
8:36 AM 33.8 °F 27.0 °F 24.8 °F 70% 30.37 in 10.0 mi SE 8.1 mph - N/A   Partly Cloudy
8:56 AM 33.8 °F 26.4 °F 24.8 °F 70% 30.37 in 10.0 mi ESE 9.2 mph - N/A   Partly Cloudy
9:16 AM 33.8 °F 27.0 °F 24.8 °F 70% 30.38 in 10.0 mi SE 8.1 mph - N/A   Partly Cloudy
9:36 AM 37.4 °F 33.8 °F 21.2 °F 52% 30.38 in 10.0 mi ESE 4.6 mph - N/A   Partly Cloudy
9:56 AM 37.4 °F 32.1 °F 21.2 °F 52% 30.39 in 10.0 mi ESE 6.9 mph - N/A   Partly Cloudy
10:16 AM 37.4 °F 30.8 °F 21.2 °F 52% 30.39 in 10.0 mi ESE 9.2 mph - N/A   Partly Cloudy
10:36 AM 39.2 °F 34.2 °F 19.4 °F 45% 30.39 in 10.0 mi SE 6.9 mph - N/A   Partly Cloudy
10:56 AM 39.2 °F 33.0 °F 19.4 °F 45% 30.39 in 10.0 mi East 9.2 mph - N/A   Partly Cloudy
11:16 AM 39.2 °F 34.2 °F 19.4 °F 45% 30.39 in 10.0 mi ESE 6.9 mph - N/A   Partly Cloudy
11:36 AM 41.0 °F 35.8 °F 17.6 °F 39% 30.39 in 10.0 mi SE 8.1 mph - N/A   Partly Cloudy
11:56 AM 39.2 °F 33.6 °F 17.6 °F 42% 30.39 in 10.0 mi SE 8.1 mph - N/A   Clear
12:16 PM 41.0 °F 36.4 °F 17.6 °F 39% 30.39 in 10.0 mi ESE 6.9 mph - N/A   Clear
12:36 PM 41.0 °F 39.0 °F 17.6 °F 39% 30.39 in 10.0 mi ESE 3.5 mph - N/A   Clear
12:56 PM 42.8 °F 40.1 °F 15.8 °F 34% 30.38 in 10.0 mi East 4.6 mph - N/A   Clear
1:16 PM 42.8 °F 40.1 °F 15.8 °F 34% 30.39 in 10.0 mi ESE 4.6 mph - N/A   Clear
1:36 PM 42.8 °F 39.3 °F 15.8 °F 34% 30.38 in 10.0 mi SE 5.8 mph - N/A   Clear
1:56 PM 42.8 °F 41.1 °F 17.6 °F 36% 30.38 in 10.0 mi East 3.5 mph - N/A   Clear
2:16 PM 42.8 °F 36.6 °F 17.6 °F 36% 30.37 in 10.0 mi NE 11.5 mph - N/A   Clear
2:36 PM 42.8 °F 37.0 °F 17.6 °F 36% 30.37 in 10.0 mi ENE 10.4 mph 17.3 mph N/A   Clear
2:56 PM 42.8 °F 36.6 °F 15.8 °F 34% 30.37 in 10.0 mi ENE 11.5 mph - N/A   Clear
3:16 PM 41.0 °F 35.2 °F 17.6 °F 39% 30.37 in 10.0 mi ENE 9.2 mph - N/A   Clear
3:36 PM 41.0 °F 35.2 °F 17.6 °F 39% 30.37 in 10.0 mi ENE 9.2 mph - N/A   Clear
3:56 PM 41.0 °F 33.9 °F 17.6 °F 39% 30.37 in 10.0 mi ENE 12.7 mph 16.1 mph N/A   Clear
4:16 PM 41.0 °F 35.2 °F 17.6 °F 39% 30.38 in 10.0 mi East 9.2 mph - N/A   Clear
4:36 PM 39.2 °F 33.0 °F 15.8 °F 39% 30.37 in 10.0 mi East 9.2 mph - N/A   Clear
4:56 PM 39.2 °F 32.0 °F 17.6 °F 42% 30.37 in 10.0 mi East 11.5 mph - N/A   Clear
5:16 PM 39.2 °F 33.6 °F 15.8 °F 39% 30.37 in 10.0 mi East 8.1 mph - N/A   Clear
5:36 PM 39.2 °F 33.6 °F 15.8 °F 39% 30.37 in 10.0 mi East 8.1 mph - N/A   Clear
5:56 PM 39.2 °F 33.0 °F 15.8 °F 39% 30.37 in 10.0 mi ESE 9.2 mph - N/A   Clear
6:16 PM 37.4 °F 30.3 °F 15.8 °F 41% 30.37 in 10.0 mi East 10.4 mph - N/A   Clear
6:36 PM 37.4 °F 30.3 °F 15.8 °F 41% 30.37 in 10.0 mi East 10.4 mph - N/A   Clear
6:56 PM 37.4 °F 30.8 °F 15.8 °F 41% 30.36 in 10.0 mi East 9.2 mph - N/A   Clear
7:16 PM 37.4 °F 30.3 °F 15.8 °F 41% 30.36 in 10.0 mi East 10.4 mph 16.1 mph N/A   Clear
7:36 PM 37.4 °F 29.8 °F 15.8 °F 41% 30.35 in 10.0 mi East 11.5 mph 17.3 mph N/A   Clear
7:56 PM 37.4 °F 29.8 °F 15.8 °F 41% 30.34 in 10.0 mi East 11.5 mph 16.1 mph N/A   Clear
8:16 PM 37.4 °F 29.8 °F 15.8 °F 41% 30.34 in 10.0 mi East 11.5 mph 17.3 mph N/A   Clear
8:36 PM 37.4 °F 29.3 °F 15.8 °F 41% 30.33 in 10.0 mi East 12.7 mph 18.4 mph N/A   Clear
8:56 PM 37.4 °F 28.9 °F 15.8 °F 41% 30.33 in 10.0 mi East 13.8 mph 18.4 mph N/A   Clear
9:16 PM 37.4 °F 29.8 °F 15.8 °F 41% 30.33 in 10.0 mi East 11.5 mph - N/A   Clear
9:36 PM 37.4 °F 29.3 °F 15.8 °F 41% 30.33 in 10.0 mi East 12.7 mph - N/A   Clear
9:56 PM 37.4 °F 29.8 °F 15.8 °F 41% 30.33 in 10.0 mi East 11.5 mph - N/A   Clear
10:16 PM 37.4 °F 30.3 °F 15.8 °F 41% 30.33 in 10.0 mi East 10.4 mph 16.1 mph N/A   Clear
10:36 PM 37.4 °F 31.4 °F 15.8 °F 41% 30.33 in 10.0 mi East 8.1 mph - N/A   Clear
10:56 PM 37.4 °F 30.3 °F 15.8 °F 41% 30.33 in 10.0 mi East 10.4 mph - N/A   Clear
11:16 PM 37.4 °F 29.8 °F 15.8 °F 41% 30.32 in 10.0 mi East 11.5 mph - N/A   Clear
11:36 PM 37.4 °F 31.4 °F 15.8 °F 41% 30.33 in 10.0 mi East 8.1 mph - N/A   Clear
11:56 PM 37.4 °F 30.3 °F 15.8 °F 41% 30.33 in 10.0 mi East 10.4 mph - N/A   Clear